East Milton, MA

9:06 PM EDT on April 24, 2017 (GMT -0400)
East Milton

Weather History for KMQE - April, 2014

Change the Weather History Date:

Friday, April 11, 2014

  Actual Average (KOWD) Record (KOWD)
Temperature  
Mean Temperature 56 °F -  
Max Temperature 70 °F 56 °F 86 °F (2017)
Min Temperature 45 °F 34 °F 21 °F (1999)
Degree Days  
Heating Degree Days 8    
Growing Degree Days 6 (Base 50)    
Moisture  
Dew Point 41 °F    
Average Humidity 58    
Maximum Humidity 80    
Minimum Humidity 35    
Precipitation  
Precipitation 0.00 in - - ()
Sea Level Pressure  
Sea Level Pressure 30.00 in    
Wind  
Wind Speed 16 mph (SW)    
Max Wind Speed 22 mph    
Max Gust Speed 30 mph    
Averages and records for this station are not official NWS values.
T = Trace of Precipitation, MM = Missing Value Source: NWS Daily Summary

Daily Weather History Graph

Daily Weather History Graph

Search for Another Location

Airport or City:

Trip Planner

Search our weather history database for the weather conditions in past years. The results will help you decide how hot, cold, wet, or windy it might be!

Date:

Astronomy

Apr. 11, 2014 Rise Set
Actual Time 6:10 AM EDT 7:21 PM EDT
Civil Twilight 5:41 AM EDT 7:50 PM EDT
Nautical Twilight 5:06 AM EDT 8:24 PM EDT
Astronomical Twilight 4:30 AM EDT 9:01 PM EDT
Moon 3:55 PM EDT (4/11) 4:07 AM EDT (4/11)
Length of Visible Light 14h 08m
Length of Day
13h 11m
Waxing Gibbous, 87% of the Moon is Illuminated
Apr 11
Waxing Gibbous
Apr 15
Full
Apr 22
Last Quarter
Apr 29
New
May 6
First Quarter

Hourly Weather History & Observations

Time (EDT) Temp. Windchill Dew Point Humidity Pressure Visibility Wind Dir Wind Speed Gust Speed Precip Events Conditions
12:54 AM 45.0 °F 36.6 °F 36.0 °F 71% 30.04 in - South 21.9 mph 27.6 mph N/A   Unknown
1:54 AM 46.9 °F - 36.0 °F 66% 30.03 in - SSW 19.6 mph - N/A   Unknown
2:54 AM 48.0 °F - 35.1 °F 61% 30.00 in - South 20.7 mph - N/A   Unknown
3:54 AM 48.0 °F - 35.1 °F 61% 29.97 in - South 18.4 mph 29.9 mph N/A   Unknown
4:54 AM 48.0 °F - 36.0 °F 63% 29.96 in - South 21.9 mph 29.9 mph N/A   Unknown
5:54 AM 50.0 °F - 37.9 °F 63% 29.96 in - SSW 18.4 mph - N/A   Unknown
6:54 AM 50.0 °F - 39.0 °F 66% 29.99 in - SSW 16.1 mph - N/A   Unknown
7:54 AM 50.0 °F - 39.9 °F 68% 30.00 in - SSW 13.8 mph - N/A   Unknown
8:54 AM 52.0 °F - 39.9 °F 63% 30.00 in - SW 12.7 mph - N/A   Unknown
9:54 AM 52.0 °F - 39.9 °F 63% 30.02 in - SW 10.4 mph - N/A   Unknown
10:54 AM 55.9 °F - 41.0 °F 57% 30.02 in - SSW 10.4 mph - N/A   Unknown
11:54 AM 60.1 °F - 39.0 °F 46% 30.00 in - SSW 10.4 mph - N/A   Unknown
12:54 PM 63.0 °F - 41.0 °F 45% 30.00 in - SSW 9.2 mph - N/A   Unknown
1:54 PM 68.0 °F - 39.0 °F 35% 29.97 in - SW 10.4 mph - N/A   Unknown
2:54 PM 66.9 °F - 39.0 °F 36% 29.97 in - WSW 11.5 mph 21.9 mph N/A   Unknown
3:54 PM 66.0 °F - 39.9 °F 38% 29.96 in - West 9.2 mph - N/A   Unknown
4:54 PM 66.0 °F - 41.0 °F 40% 29.96 in - SW 5.8 mph - N/A   Unknown
5:54 PM 64.9 °F - 42.1 °F 43% 29.96 in - West 9.2 mph - N/A   Unknown
6:54 PM 60.1 °F - 45.0 °F 57% 29.99 in - West 11.5 mph - N/A   Unknown
7:54 PM 59.0 °F - 45.0 °F 60% 30.01 in - West 10.4 mph 25.3 mph N/A   Unknown
8:54 PM 57.0 °F - 46.9 °F 69% 30.04 in - WNW 8.1 mph - N/A   Unknown
9:54 PM 55.0 °F - 48.9 °F 80% 30.04 in - NW 9.2 mph - N/A   Unknown
10:54 PM 54.0 °F - 48.0 °F 80% 30.03 in - West 9.2 mph - N/A   Unknown
11:54 PM 52.0 °F - 43.0 °F 71% 30.02 in - NW 6.9 mph - N/A   Unknown